{"data":{"norad_id":61612,"intl_designator":"2024-188U","name":"ONEWEB-0707","alt_names":[],"object_type":"PAYLOAD","status":"ACTIVE","operator":null,"country":"UK","launch_date":"2024-10-20","launch_site_code":"AFWTR","launch_vehicle":null,"mission":null,"orbit_class":"UNKNOWN","rcs_meters":null,"size_class":null,"mass_kg":null,"dimensions":null,"purposes":["comms"],"wikipedia_slug":null,"has_3d_model":false,"image_url":null,"decayed_at":null,"tle_current":{"epoch":"2026-09-19T16:08:55.219776Z","epoch_age_seconds":93463,"freshness":"FRESH","line1":"1 61612U 24188U   26262.67286134 -.00000082  00000+0 -27031-3 0  9991","line2":"2 61612  87.8912  17.4550 0001182 107.9093 252.2164 13.10377720 95698","mean_motion":13.1037772,"eccentricity":0.0001182,"inclination_deg":87.8912,"raan_deg":17.455,"arg_perigee_deg":107.9093,"mean_anomaly_deg":252.2164,"bstar":-0.00027031,"rev_number":9569,"period_min":109.8919783221,"perigee_km":1220.7998928187,"apogee_km":1222.5964938584,"semimajor_km":7599.8351933386,"source":"CELESTRAK","updated_at":"2026-09-20T09:00:44.802177Z"}}}